Location: Izdebno
(52.6670°N, 16.2170°E)
Time: 04:45:17
(UTC+02:00)

Transit 4A - Pass Details

Date: 24 February 2024
Orbit: 871 x 972 km, 66.8° (Epoch: 22 April)

Event Time Altitude Azimuth Distance (km) Brightness Sun altitude
Rises 06:35:26 0° 304° (NW) 3,549 - -3.6°
Exits shadow 06:35:48 - 306° (NW) 3,430 10.3 -3.6°
Reaches altitude 10° 06:38:36 10° 320° (NW) 2,588 9.8 -3.1°
Maximum altitude 06:43:09 22° 10° (N) 1,861 9.5 -2.5°
Drops below altitude 10° 06:47:37 10° 59° (ENE) 2,545 11.0 -1.8°
Sets 06:50:42 0° 75° (ENE) 3,473 12.1 -1.3°
